,,Stat6,,Stat2,,Stat8,,Stat9,,Stat10,,Wind1,,Wind1,
time,status,PA1M_AVG,status,PR1M_SUM,status,RH1M_AVG,status,SR1M_AVG,status,TA1M_AVG,status,W1dAve1m,status,W1sAve1m,
2005-05-11, 00:00:00,VALID,918.957,VALID,0,VALID,80.1937,VALID,0.0169808,VALID,20.961,VALID,278,VALID,0.172433,
2005-05-11, 00:01:00,VALID,918.967,VALID,0,VALID,77.6709,VALID,0.0169808,VALID,20.9454,VALID,278,VALID,0.182776,
2005-05-11, 00:02:00,VALID,918.987,VALID,0,VALID,79.4791,VALID,0,VALID,20.9543,VALID,278,VALID,0.0889137,
2005-05-11, 00:03:00,VALID,918.991,VALID,0,VALID,82.2665,VALID,0.0169808,VALID,20.932,VALID,317,VALID,0.478924,
2005-05-11, 00:04:00,VALID,918.974,VALID,0,VALID,80.3718,VALID,0.0849042,VALID,20.8313,VALID,17,VALID,0.567969,
2005-05-11, 00:05:00,VALID,918.965,VALID,0,VALID,81.2848,VALID,0.0169808,VALID,20.8286,VALID,36,VALID,0.106585,
2005-05-11, 00:06:00,VALID,918.965,VALID,0,VALID,80.9071,VALID,-0.0509425,VALID,20.8008,VALID,36,VALID,0.0010016,
2005-05-11, 00:07:00,VALID,918.962,VALID,0,VALID,78.9743,VALID,-0.101885,VALID,20.7551,VALID,36,VALID,0,
2005-05-11, 00:08:00,VALID,918.953,VALID,0,VALID,79.3265,VALID,-0.0849042,VALID,20.7815,VALID,36,VALID,0,
2005-05-11, 00:09:00,VALID,918.934,VALID,0,VALID,82.5437,VALID,-0.118866,VALID,20.7879,VALID,36,VALID,0.0593378,
2005-05-11, 00:10:00,VALID,918.929,VALID,0,VALID,81.2771,VALID,-0.0679233,VALID,20.7683,VALID,36,VALID,0.152071,
2005-05-11, 00:11:00,VALID,918.936,VALID,0,VALID,81.4831,VALID,-0.0849042,VALID,20.7618,VALID,36,VALID,0.139258,
2005-05-11, 00:12:00,VALID,918.923,VALID,0,VALID,77.3924,VALID,-0.101885,VALID,20.7755,VALID,36,VALID,0.32984,
2005-05-11, 00:13:00,VALID,918.932,VALID,0,VALID,78.6869,VALID,-0.0849042,VALID,20.8923,VALID,36,VALID,0.0644985,
2005-05-11, 00:14:00,VALID,918.938,VALID,0,VALID,80.5943,VALID,-0.101885,VALID,20.9077,VALID,36,VALID,0.0987723,
2005-05-11, 00:15:00,VALID,918.937,VALID,0,VALID,80.9287,VALID,-0.0849042,VALID,20.8848,VALID,29,VALID,0.358817,
2005-05-11, 00:16:00,VALID,918.949,VALID,0,VALID,78.7276,VALID,-0.0849042,VALID,20.8431,VALID,223,VALID,0.536776,
2005-05-11, 00:17:00,VALID,918.941,VALID,0,VALID,76.8609,VALID,-0.101885,VALID,20.8358,VALID,199,VALID,0.101162,
2005-05-11, 00:18:00,VALID,918.956,VALID,0,VALID,77.2373,VALID,-0.0849042,VALID,20.9012,VALID,199,VALID,0.0726207,
2005-05-11, 00:19:00,VALID,918.953,VALID,0,VALID,77.7345,VALID,-0.0679233,VALID,20.9365,VALID,199,VALID,0,
2005-05-11, 00:20:00,VALID,918.958,VALID,0,VALID,78.3893,VALID,-0.0679233,VALID,20.9688,VALID,199,VALID,0.0337891,
2005-05-11, 00:21:00,VALID,918.937,VALID,0,VALID,75.0882,VALID,-0.0679233,VALID,21.0178,VALID,302,VALID,0.362723,
2005-05-11, 00:22:00,VALID,918.927,VALID,0,VALID,76.7668,VALID,-0.0679233,VALID,21.1274,VALID,328,VALID,0.0362216,
2005-05-11, 00:23:00,VALID,918.923,VALID,0,VALID,78.1782,VALID,-0.0679233,VALID,21.1567,VALID,325,VALID,0.277071,
2005-05-11, 00:24:00,VALID,918.92,VALID,0,VALID,77.9544,VALID,-0.0849042,VALID,21.153,VALID,311,VALID,0.0855469,
2005-05-11, 00:25:00,VALID,918.907,VALID,0,VALID,76.8024,VALID,-0.101885,VALID,21.1896,VALID,298,VALID,0.327592,
2005-05-11, 00:26:00,VALID,918.925,VALID,0,VALID,75.6732,VALID,-0.101885,VALID,21.2402,VALID,359,VALID,0.0259146,
2005-05-11, 00:27:00,VALID,918.92,VALID,0,VALID,79.1943,VALID,-0.0679233,VALID,21.273,VALID,357,VALID,0.363567,
2005-05-11, 00:28:00,VALID,918.911,VALID,0,VALID,76.3395,VALID,-0.101885,VALID,21.2348,VALID,289,VALID,0.396289,
2005-05-11, 00:29:00,VALID,918.91,VALID,0,VALID,72.236,VALID,-0.101885,VALID,21.3831,VALID,289,VALID,0.501116,
2005-05-11, 00:30:00,VALID,918.906,VALID,0,VALID,76.5709,VALID,-0.101885,VALID,21.5802,VALID,289,VALID,0.046689,
2005-05-11, 00:31:00,VALID,918.919,VALID,0,VALID,75.3197,VALID,-0.101885,VALID,21.5668,VALID,289,VALID,0.000355114,
2005-05-11, 00:32:00,VALID,918.915,VALID,0,VALID,72.4255,VALID,-0.0849042,VALID,21.5506,VALID,289,VALID,0.120722,
2005-05-11, 00:33:00,VALID,918.919,VALID,0,VALID,73.8306,VALID,-0.101885,VALID,21.5832,VALID,289,VALID,0.000952744,
2005-05-11, 00:34:00,VALID,918.928,VALID,0,VALID,72.8896,VALID,-0.101885,VALID,21.6058,VALID,250,VALID,0.479911,
2005-05-11, 00:35:00,VALID,918.942,VALID,0,VALID,73.0295,VALID,-0.101885,VALID,21.6896,VALID,265,VALID,0.367374,
2005-05-11, 00:36:00,VALID,918.924,VALID,0,VALID,73.1681,VALID,-0.0339617,VALID,21.7208,VALID,277,VALID,0.341211,
2005-05-11, 00:37:00,VALID,918.932,VALID,0,VALID,71.6727,VALID,0,VALID,21.762,VALID,272,VALID,0.572656,
2005-05-11, 00:38:00,VALID,918.925,VALID,0,VALID,71.2785,VALID,0.0169808,VALID,21.8174,VALID,252,VALID,0.410528,
2005-05-11, 00:39:00,VALID,918.927,VALID,0,VALID,70.8538,VALID,0.0679233,VALID,21.8847,VALID,252,VALID,0.633185,
2005-05-11, 00:40:00,VALID,918.916,VALID,0,VALID,71.8202,VALID,0.0339617,VALID,21.9009,VALID,270,VALID,0.58125,
2005-05-11, 00:41:00,VALID,918.921,VALID,0,VALID,71.1234,VALID,0.0509425,VALID,21.8979,VALID,225,VALID,0.507813,
2005-05-11, 00:42:00,VALID,918.913,VALID,0,VALID,70.9034,VALID,0.0339617,VALID,21.8874,VALID,210,VALID,0.503906,
2005-05-11, 00:43:00,VALID,918.904,VALID,0,VALID,71.632,VALID,0,VALID,21.9135,VALID,234,VALID,0.360828,
2005-05-11, 00:44:00,VALID,918.908,VALID,0,VALID,73.0537,VALID,0.0169808,VALID,21.9044,VALID,258,VALID,0.0888445,
2005-05-11, 00:45:00,VALID,918.926,VALID,0,VALID,73.0461,VALID,0,VALID,21.8519,VALID,258,VALID,0.000868056,
2005-05-11, 00:46:00,VALID,918.937,VALID,0,VALID,73.486,VALID,0.0509425,VALID,21.7908,VALID,258,VALID,0.277248,
2005-05-11, 00:47:00,VALID,918.955,VALID,0,VALID,74.1422,VALID,0.0509425,VALID,21.6971,VALID,258,VALID,0.155208,
2005-05-11, 00:48:00,VALID,918.936,VALID,0,VALID,76.7846,VALID,0.0339617,VALID,21.6195,VALID,258,VALID,0.0338542,
2005-05-11, 00:49:00,VALID,918.916,VALID,0,VALID,78.5292,VALID,0,VALID,21.5032,VALID,258,VALID,0.267361,
2005-05-11, 00:50:00,VALID,918.915,VALID,0,VALID,76.6243,VALID,0.0339617,VALID,21.3713,VALID,253,VALID,0.332589,
2005-05-11, 00:51:00,VALID,918.91,VALID,0,VALID,78.4249,VALID,0,VALID,21.2782,VALID,236,VALID,0.199219,
2005-05-11, 00:52:00,VALID,918.906,VALID,0,VALID,78.4682,VALID,0,VALID,21.1772,VALID,236,VALID,0.144622,
2005-05-11, 00:53:00,VALID,918.882,VALID,0,VALID,75.9962,VALID,0.0169808,VALID,21.1091,VALID,236,VALID,0.111737,
2005-05-11, 00:54:00,VALID,918.865,VALID,0,VALID,76.6727,VALID,0,VALID,21.0964,VALID,234,VALID,0.105564,
2005-05-11, 00:55:00,VALID,918.847,VALID,0,VALID,74.9255,VALID,0,VALID,21.1285,VALID,240,VALID,0.943859,
2005-05-11, 00:56:00,VALID,918.839,VALID,0,VALID,73.3144,VALID,-0.0169808,VALID,21.297,VALID,239,VALID,0.929332,
2005-05-11, 00:57:00,VALID,918.828,VALID,0,VALID,78.3932,VALID,0,VALID,21.413,VALID,243,VALID,0.282315,
2005-05-11, 00:58:00,VALID,918.801,VALID,0,VALID,78.7072,VALID,0.0339617,VALID,21.342,VALID,243,VALID,0.068407,
2005-05-11, 00:59:00,VALID,918.792,VALID,0,VALID,77.4089,VALID,0,VALID,21.2227,VALID,243,VALID,0.0170455,
2005-05-11, 01:00:00,VALID,918.777,VALID,0,VALID,75.279,VALID,0,VALID,21.1516,VALID,222,VALID,0.281613,
2005-05-11, 01:01:00,VALID,918.748,VALID,0,VALID,76.8202,VALID,0,VALID,21.1252,VALID,218,VALID,0.218023,
2005-05-11, 01:02:00,VALID,918.755,VALID,0,VALID,76.5659,VALID,0,VALID,21.1161,VALID,218,VALID,0.497396,
2005-05-11, 01:03:00,VALID,918.757,VALID,0,VALID,77.4255,VALID,0.0169808,VALID,21.1061,VALID,220,VALID,0.377148,
2005-05-11, 01:04:00,VALID,918.736,VALID,0,VALID,81.0406,VALID,0.0169808,VALID,21.0811,VALID,305,VALID,0.373512,
2005-05-11, 01:05:00,VALID,918.724,VALID,0,VALID,75.7787,VALID,0.0169808,VALID,20.9672,VALID,172,VALID,0.538504,
2005-05-11, 01:06:00,VALID,918.726,VALID,0,VALID,79.3202,VALID,0.0169808,VALID,21.003,VALID,31,VALID,0.20694,
2005-05-11, 01:07:00,VALID,918.734,VALID,0,VALID,78.341,VALID,0.0169808,VALID,20.954,VALID,79,VALID,0.330171,
2005-05-11, 01:08:00,VALID,918.752,VALID,0,VALID,78.7645,VALID,0,VALID,20.9444,VALID,160,VALID,0.348011,
2005-05-11, 01:09:00,VALID,918.737,VALID,0,VALID,77.9366,VALID,-0.0169808,VALID,20.9414,VALID,161,VALID,0.228711,
2005-05-11, 01:10:00,VALID,918.732,VALID,0,VALID,75.312,VALID,0,VALID,20.9732,VALID,230,VALID,0.950036,
2005-05-11, 01:11:00,VALID,918.732,VALID,0,VALID,74.4334,VALID,0,VALID,21.1446,VALID,238,VALID,0.756696,
2005-05-11, 01:12:00,VALID,918.742,VALID,0,VALID,72.6773,VALID,0,VALID,21.3646,VALID,259,VALID,0.957304,
2005-05-11, 01:13:00,VALID,918.746,VALID,0,VALID,72.7574,VALID,0,VALID,21.5059,VALID,257,VALID,0.771205,
2005-05-11, 01:14:00,VALID,918.716,VALID,0,VALID,75.0514,VALID,0,VALID,21.5778,VALID,305,VALID,0.525534,
2005-05-11, 01:15:00,VALID,918.709,VALID,0,VALID,75.1366,VALID,0,VALID,21.4997,VALID,357,VALID,0.208891,
2005-05-11, 01:16:00,VALID,918.688,VALID,0,VALID,77.1177,VALID,-0.0169808,VALID,21.4324,VALID,357,VALID,0.163889,
2005-05-11, 01:17:00,VALID,918.66,VALID,0,VALID,74.4435,VALID,0,VALID,21.3775,VALID,258,VALID,0.337209,
2005-05-11, 01:18:00,VALID,918.652,VALID,0,VALID,76.4412,VALID,0,VALID,21.3713,VALID,254,VALID,0.55923,
2005-05-11, 01:19:00,VALID,918.613,VALID,0,VALID,76.2009,VALID,0.0169808,VALID,21.3293,VALID,278,VALID,0.170703,
2005-05-11, 01:20:00,VALID,918.589,VALID,0,VALID,76.6511,VALID,0,VALID,21.2806,VALID,278,VALID,0,
2005-05-11, 01:21:00,VALID,918.57,VALID,0,VALID,77.03,VALID,0.0169808,VALID,21.2189,VALID,278,VALID,0.00241815,
2005-05-11, 01:22:00,VALID,918.565,VALID,0,VALID,78.0091,VALID,0,VALID,21.1804,VALID,278,VALID,0.127951,
2005-05-11, 01:23:00,VALID,918.541,VALID,0,VALID,82.2296,VALID,0,VALID,21.1056,VALID,354,VALID,0.667039,
2005-05-11, 01:24:00,VALID,918.53,VALID,0,VALID,80.5447,VALID,0,VALID,20.8959,VALID,130,VALID,0.629764,
2005-05-11, 01:25:00,VALID,918.539,VALID,0,VALID,77.7968,VALID,0.0169808,VALID,20.7376,VALID,122,VALID,0.0543155,
2005-05-11, 01:26:00,VALID,918.541,VALID,0,VALID,78.4491,VALID,0.0509425,VALID,20.7155,VALID,122,VALID,0.025,
2005-05-11, 01:27:00,VALID,918.529,VALID,0,VALID,79.2998,VALID,0,VALID,20.6989,VALID,122,VALID,0.0090554,
2005-05-11, 01:28:00,VALID,918.533,VALID,0,VALID,80.3095,VALID,0,VALID,20.6827,VALID,122,VALID,0.000952744,
2005-05-11, 01:29:00,VALID,918.536,VALID,0,VALID,80.8397,VALID,-0.0339617,VALID,20.6668,VALID,122,VALID,0,
2005-05-11, 01:30:00,VALID,918.534,VALID,0,VALID,81.3344,VALID,0.0339617,VALID,20.6507,VALID,122,VALID,0,
2005-05-11, 01:31:00,VALID,918.518,VALID,0,VALID,83.2888,VALID,0,VALID,20.6055,VALID,122,VALID,0,
2005-05-11, 01:32:00,VALID,918.5,VALID,0,VALID,83.5012,VALID,-0.0169808,VALID,20.5541,VALID,122,VALID,0,
2005-05-11, 01:33:00,VALID,918.497,VALID,0,VALID,81.7578,VALID,0,VALID,20.4929,VALID,122,VALID,0,
2005-05-11, 01:34:00,VALID,918.484,VALID,0,VALID,81.693,VALID,0,VALID,20.4574,VALID,122,VALID,0,
2005-05-11, 01:35:00,VALID,918.47,VALID,0,VALID,80.5549,VALID,-0.0169808,VALID,20.4345,VALID,189,VALID,0.441315,
2005-05-11, 01:36:00,VALID,918.48,VALID,0,VALID,81.3687,VALID,-0.0169808,VALID,20.4994,VALID,238,VALID,0.334201,
2005-05-11, 01:37:00,VALID,918.478,VALID,0,VALID,80.8245,VALID,0,VALID,20.5024,VALID,238,VALID,0.0831473,
2005-05-11, 01:38:00,VALID,918.469,VALID,0,VALID,81.6853,VALID,-0.0169808,VALID,20.4895,VALID,238,VALID,0.0457317,
2005-05-11, 01:39:00,VALID,918.458,VALID,0,VALID,83.767,VALID,0,VALID,20.48,VALID,238,VALID,0.112995,
2005-05-11, 01:40:00,VALID,918.431,VALID,0,VALID,84.9406,VALID,0,VALID,20.4149,VALID,238,VALID,0.114648,
2005-05-11, 01:41:00,VALID,918.413,VALID,0,VALID,82.9417,VALID,-0.0169808,VALID,20.3118,VALID,293,VALID,0.567522,
2005-05-11, 01:42:00,VALID,918.399,VALID,0,VALID,82.5983,VALID,0,VALID,20.2537,VALID,305,VALID,0.238477,
2005-05-11, 01:43:00,VALID,918.363,VALID,0,VALID,81.9295,VALID,0,VALID,20.2378,VALID,66,VALID,0.664063,
2005-05-11, 01:44:00,VALID,918.349,VALID,0,VALID,82.8082,VALID,-0.0169808,VALID,20.2698,VALID,67,VALID,0.0534446,
2005-05-11, 01:45:00,VALID,918.35,VALID,0,VALID,82.1317,VALID,0,VALID,20.2666,VALID,67,VALID,0.00838415,
2005-05-11, 01:46:00,VALID,918.321,VALID,0,VALID,83.2685,VALID,-0.0169808,VALID,20.2741,VALID,67,VALID,0.0902158,
2005-05-11, 01:47:00,VALID,918.305,VALID,0,VALID,82.6276,VALID,-0.0169808,VALID,20.238,VALID,67,VALID,0,
2005-05-11, 01:48:00,VALID,918.3,VALID,0,VALID,81.8684,VALID,0,VALID,20.2052,VALID,67,VALID,0,
2005-05-11, 01:49:00,VALID,918.292,VALID,0,VALID,82.5475,VALID,0,VALID,20.2154,VALID,67,VALID,0.249645,
2005-05-11, 01:50:00,VALID,918.303,VALID,0,VALID,84.184,VALID,0,VALID,20.203,VALID,67,VALID,0.177539,
2005-05-11, 01:51:00,VALID,918.278,VALID,0,VALID,83.107,VALID,-0.0169808,VALID,20.1344,VALID,67,VALID,0.014881,
2005-05-11, 01:52:00,VALID,918.269,VALID,0,VALID,84.5579,VALID,0,VALID,20.1317,VALID,67,VALID,0,
2005-05-11, 01:53:00,VALID,918.263,VALID,0,VALID,84.6329,VALID,0,VALID,20.0756,VALID,67,VALID,0.0617733,
2005-05-11, 01:54:00,VALID,918.261,VALID,0,VALID,84.2273,VALID,-0.0169808,VALID,20.0408,VALID,67,VALID,0.0837573,
2005-05-11, 01:55:00,VALID,918.261,VALID,0,VALID,85.1416,VALID,0.0339617,VALID,20.0077,VALID,68,VALID,0.141741,
2005-05-11, 01:56:00,VALID,918.247,VALID,0,VALID,82.5818,VALID,0,VALID,20.0795,VALID,220,VALID,1.28392,
2005-05-11, 01:57:00,VALID,918.217,VALID,0,VALID,82.5284,VALID,-0.0169808,VALID,20.3347,VALID,44,VALID,0.555051,
2005-05-11, 01:58:00,VALID,918.219,VALID,0,VALID,81.6866,VALID,0,VALID,20.3317,VALID,149,VALID,0.279647,
2005-05-11, 01:59:00,VALID,918.211,VALID,0,VALID,80.9376,VALID,0,VALID,20.3705,VALID,174,VALID,0.385417,
2005-05-11, 02:00:00,VALID,918.194,VALID,0,VALID,80.6897,VALID,0,VALID,20.4345,VALID,235,VALID,0.72674,
2005-05-11, 02:01:00,VALID,918.195,VALID,0,VALID,80.8194,VALID,0,VALID,20.5061,VALID,269,VALID,0.0932049,
2005-05-11, 02:02:00,VALID,918.171,VALID,0,VALID,80.6388,VALID,0,VALID,20.4994,VALID,269,VALID,0.147615,
2005-05-11, 02:03:00,VALID,918.162,VALID,0,VALID,80.9771,VALID,0,VALID,20.4969,VALID,269,VALID,0,
2005-05-11, 02:04:00,VALID,918.151,VALID,0,VALID,80.1721,VALID,0,VALID,20.4676,VALID,269,VALID,0.084032,
2005-05-11, 02:05:00,VALID,918.144,VALID,0,VALID,81.843,VALID,0.0169808,VALID,20.477,VALID,269,VALID,0.00799006,
2005-05-11, 02:06:00,VALID,918.13,VALID,0,VALID,80.3362,VALID,0.0339617,VALID,20.4537,VALID,227,VALID,1.02671,
2005-05-11, 02:07:00,VALID,918.096,VALID,0,VALID,78.1223,VALID,0,VALID,20.7737,VALID,243,VALID,1.50449,
2005-05-11, 02:08:00,VALID,918.076,VALID,0,VALID,77.5043,VALID,0.0169808,VALID,21.0001,VALID,220,VALID,0.659299,
2005-05-11, 02:09:00,VALID,918.063,VALID,0,VALID,76.3408,VALID,0.0169808,VALID,21.0937,VALID,205,VALID,0.6875,
2005-05-11, 02:10:00,VALID,918.063,VALID,0,VALID,75.6134,VALID,0,VALID,21.2168,VALID,226,VALID,0.942454,
2005-05-11, 02:11:00,VALID,918.057,VALID,0,VALID,75.6948,VALID,0,VALID,21.3877,VALID,247,VALID,0.574574,
2005-05-11, 02:12:00,VALID,918.026,VALID,0,VALID,77.9163,VALID,0,VALID,21.3621,VALID,23,VALID,0.525036,
2005-05-11, 02:13:00,VALID,918.028,VALID,0,VALID,76.5849,VALID,0.0169808,VALID,21.2362,VALID,51,VALID,0.185213,
2005-05-11, 02:14:00,VALID,918.002,VALID,0,VALID,76.295,VALID,0.0169808,VALID,21.2073,VALID,340,VALID,0.476376,
2005-05-11, 02:15:00,VALID,917.977,VALID,0,VALID,77.4814,VALID,0.0169808,VALID,21.2453,VALID,301,VALID,0.555233,
2005-05-11, 02:16:00,VALID,917.972,VALID,0,VALID,78.5941,VALID,0,VALID,21.1907,VALID,311,VALID,0.304324,
2005-05-11, 02:17:00,VALID,917.942,VALID,0,VALID,78.9298,VALID,0,VALID,21.0746,VALID,312,VALID,0.17133,
2005-05-11, 02:18:00,VALID,917.943,VALID,0,VALID,79.2121,VALID,0.0509425,VALID,20.9508,VALID,343,VALID,0.603659,
2005-05-11, 02:19:00,VALID,917.91,VALID,0,VALID,78.4771,VALID,0.0169808,VALID,20.8805,VALID,341,VALID,0.830171,
2005-05-11, 02:20:00,VALID,917.878,VALID,0,VALID,77.3746,VALID,0.0509425,VALID,20.9672,VALID,200,VALID,0.724564,
2005-05-11, 02:21:00,VALID,917.867,VALID,0,VALID,78.8954,VALID,0.0169808,VALID,21.0512,VALID,302,VALID,0.492746,
2005-05-11, 02:22:00,VALID,917.871,VALID,0,VALID,79.001,VALID,0,VALID,21.0003,VALID,302,VALID,0.358259,
2005-05-11, 02:23:00,VALID,917.873,VALID,0,VALID,79.6177,VALID,0.0169808,VALID,20.9193,VALID,309,VALID,0.289621,
2005-05-11, 02:24:00,VALID,917.866,VALID,0,VALID,80.5625,VALID,0.0169808,VALID,20.8127,VALID,35,VALID,0.401042,
2005-05-11, 02:25:00,VALID,917.844,VALID,0,VALID,80.1162,VALID,0,VALID,20.7258,VALID,342,VALID,0.454314,
2005-05-11, 02:26:00,VALID,917.822,VALID,0,VALID,79.7487,VALID,0.0169808,VALID,20.6902,VALID,239,VALID,0.457332,
2005-05-11, 02:27:00,VALID,917.787,VALID,0,VALID,78.9221,VALID,0,VALID,20.732,VALID,220,VALID,0.805051,
2005-05-11, 02:28:00,VALID,917.763,VALID,0,VALID,78.3283,VALID,0,VALID,20.8749,VALID,249,VALID,1.03746,
2005-05-11, 02:29:00,VALID,917.737,VALID,0,VALID,77.4916,VALID,0.0169808,VALID,21.0641,VALID,255,VALID,1.04794,
2005-05-11, 02:30:00,VALID,917.686,VALID,0,VALID,76.3497,VALID,0,VALID,21.2749,VALID,259,VALID,1.36493,
2005-05-11, 02:31:00,VALID,917.65,VALID,0,VALID,75.2828,VALID,0,VALID,21.5205,VALID,242,VALID,1.33368,
2005-05-11, 02:32:00,VALID,917.623,VALID,0,VALID,74.4499,VALID,0.0169808,VALID,21.6685,VALID,256,VALID,1.02095,
2005-05-11, 02:33:00,VALID,917.625,VALID,0,VALID,73.8688,VALID,0,VALID,21.7978,VALID,252,VALID,1.28034,
2005-05-11, 02:34:00,VALID,917.606,VALID,0,VALID,74.0188,VALID,0.0509425,VALID,21.8885,VALID,237,VALID,1.25093,
2005-05-11, 02:35:00,VALID,917.591,VALID,0,VALID,73.9959,VALID,0.0169808,VALID,21.8759,VALID,231,VALID,0.939757,
2005-05-11, 02:36:00,VALID,917.584,VALID,0,VALID,73.7747,VALID,0.0169808,VALID,21.8656,VALID,255,VALID,0.697218,
2005-05-11, 02:37:00,VALID,917.589,VALID,0,VALID,74.1244,VALID,0.0169808,VALID,21.8489,VALID,251,VALID,0.745916,
2005-05-11, 02:38:00,VALID,917.576,VALID,0,VALID,73.9743,VALID,0.0339617,VALID,21.8309,VALID,253,VALID,0.506055,
2005-05-11, 02:39:00,VALID,917.568,VALID,0,VALID,73.6755,VALID,0,VALID,21.8395,VALID,230,VALID,1.41806,
2005-05-11, 02:40:00,VALID,917.575,VALID,0,VALID,73.2139,VALID,0,VALID,21.9752,VALID,254,VALID,1.27544,
2005-05-11, 02:41:00,VALID,917.563,VALID,0,VALID,73.2622,VALID,0,VALID,22.0598,VALID,229,VALID,1.11533,
2005-05-11, 02:42:00,VALID,917.551,VALID,0,VALID,73.3118,VALID,0.0339617,VALID,22.0372,VALID,220,VALID,0.73331,
2005-05-11, 02:43:00,VALID,917.556,VALID,0,VALID,73.4415,VALID,0,VALID,22.0105,VALID,233,VALID,1.23201,
2005-05-11, 02:44:00,VALID,917.563,VALID,0,VALID,73.4314,VALID,0.0169808,VALID,22.0008,VALID,222,VALID,1.21224,
2005-05-11, 02:45:00,VALID,917.554,VALID,0,VALID,73.4873,VALID,0.0679233,VALID,22.0202,VALID,231,VALID,1.54965,
2005-05-11, 02:46:00,VALID,917.553,VALID,0,VALID,73.6602,VALID,0,VALID,22.0237,VALID,222,VALID,1.11663,
2005-05-11, 02:47:00,VALID,917.554,VALID,0,VALID,73.8268,VALID,0.0169808,VALID,22.0072,VALID,215,VALID,1.02907,
2005-05-11, 02:48:00,VALID,917.569,VALID,0,VALID,73.8395,VALID,0.0679233,VALID,21.9873,VALID,217,VALID,1.2096,
2005-05-11, 02:49:00,VALID,917.574,VALID,0,VALID,73.776,VALID,0.0169808,VALID,22.0005,VALID,210,VALID,1.26172,
2005-05-11, 02:50:00,VALID,917.58,VALID,0,VALID,73.9489,VALID,0.0679233,VALID,22.0234,VALID,216,VALID,1.23586,
2005-05-11, 02:51:00,VALID,917.585,VALID,0,VALID,74.3418,VALID,-0.0509425,VALID,21.9795,VALID,229,VALID,1.02939,
2005-05-11, 02:52:00,VALID,917.58,VALID,0,VALID,74.1727,VALID,-0.101885,VALID,21.9925,VALID,235,VALID,1.69442,
2005-05-11, 02:53:01,VALID,917.573,VALID,0,VALID,74.31,VALID,-0.0849042,VALID,21.976,VALID,222,VALID,1.36319,
2005-05-11, 02:54:00,VALID,917.569,VALID,0,VALID,74.249,VALID,-0.0509425,VALID,22.0186,VALID,221,VALID,1.97656,
2005-05-11, 02:55:00,VALID,917.571,VALID,0,VALID,74.352,VALID,-0.0849042,VALID,21.9992,VALID,221,VALID,1.76817,
2005-05-11, 02:56:00,VALID,917.567,VALID,0,VALID,74.1943,VALID,-0.0679233,VALID,22.038,VALID,222,VALID,1.86318,
2005-05-11, 02:57:00,VALID,917.556,VALID,0,VALID,74.043,VALID,-0.0509425,VALID,22.0501,VALID,223,VALID,2.0092,
2005-05-11, 02:58:00,VALID,917.528,VALID,0,VALID,73.6399,VALID,-0.101885,VALID,22.1276,VALID,235,VALID,2.25488,
2005-05-11, 02:59:01,VALID,917.54,VALID,0,VALID,73.7429,VALID,-0.0339617,VALID,22.1705,VALID,237,VALID,1.47749,
2005-05-11, 03:00:00,VALID,917.533,VALID,0,VALID,73.7836,VALID,-0.0679233,VALID,22.1605,VALID,240,VALID,1.44722,
2005-05-11, 03:01:00,VALID,917.532,VALID,0,VALID,73.9336,VALID,-0.0849042,VALID,22.1438,VALID,214,VALID,1.57199,
2005-05-11, 03:02:00,VALID,917.52,VALID,0,VALID,74.0023,VALID,-0.0509425,VALID,22.1238,VALID,219,VALID,1.72622,
2005-05-11, 03:03:00,VALID,917.519,VALID,0,VALID,73.9514,VALID,-0.0339617,VALID,22.1241,VALID,234,VALID,1.96458,
2005-05-11, 03:04:01,VALID,917.513,VALID,0,VALID,73.9972,VALID,-0.0679233,VALID,22.1411,VALID,238,VALID,1.96751,
2005-05-11, 03:05:00,VALID,917.51,VALID,0,VALID,74.1434,VALID,-0.0679233,VALID,22.1179,VALID,238,VALID,1.47954,
2005-05-11, 03:06:00,VALID,917.511,VALID,0,VALID,74.4613,VALID,0.0339617,VALID,22.0519,VALID,242,VALID,0.871761,
2005-05-11, 03:07:00,VALID,917.502,VALID,0,VALID,75.0387,VALID,0.0339617,VALID,21.9835,VALID,246,VALID,1.06146,
2005-05-11, 03:08:00,VALID,917.51,VALID,0,VALID,75.4939,VALID,0.0509425,VALID,21.913,VALID,224,VALID,0.676054,
2005-05-11, 03:09:00,VALID,917.481,VALID,0,VALID,75.6096,VALID,0.0679233,VALID,21.8282,VALID,255,VALID,0.860709,
2005-05-11, 03:10:00,VALID,917.47,VALID,0,VALID,75.8487,VALID,0.0509425,VALID,21.78,VALID,239,VALID,0.529762,
2005-05-11, 03:11:01,VALID,917.448,VALID,0,VALID,76.0356,VALID,0.0509425,VALID,21.7479,VALID,218,VALID,1.30907,
2005-05-11, 03:12:01,VALID,917.44,VALID,0,VALID,76.2543,VALID,0.0679233,VALID,21.7703,VALID,243,VALID,1.24549,
2005-05-11, 03:13:00,VALID,917.429,VALID,0,VALID,76.5391,VALID,0.0169808,VALID,21.7288,VALID,276,VALID,1.26283,
2005-05-11, 03:14:00,VALID,917.427,VALID,0,VALID,76.8329,VALID,0.0339617,VALID,21.7,VALID,225,VALID,0.824609,
2005-05-11, 03:15:00,VALID,917.419,VALID,0,VALID,77.6658,VALID,0.0509425,VALID,21.6316,VALID,193,VALID,0.171131,
2005-05-11, 03:16:01,VALID,917.38,VALID,0,VALID,78.2762,VALID,0.0339617,VALID,21.5479,VALID,171,VALID,0.334794,
2005-05-11, 03:17:00,VALID,917.371,VALID,0,VALID,78.4758,VALID,0,VALID,21.4572,VALID,173,VALID,0.820858,
2005-05-11, 03:18:00,VALID,917.368,VALID,0,VALID,78.4567,VALID,0,VALID,21.3473,VALID,232,VALID,1.32146,
2005-05-11, 03:19:00,VALID,917.336,VALID,0,VALID,77.812,VALID,0.0169808,VALID,21.3893,VALID,241,VALID,1.62972,
2005-05-11, 03:20:01,VALID,917.357,VALID,0,VALID,78.1986,VALID,0.0339617,VALID,21.461,VALID,246,VALID,0.910633,
2005-05-11, 03:21:00,VALID,917.326,VALID,0,VALID,78.7352,VALID,-0.0679233,VALID,21.4297,VALID,338,VALID,0.322976,
2005-05-11, 03:22:01,VALID,917.331,VALID,0,VALID,79.3545,VALID,-0.101885,VALID,21.3783,VALID,351,VALID,0.366997,
2005-05-11, 03:23:00,VALID,917.368,VALID,0,VALID,79.9636,VALID,-0.0679233,VALID,21.3013,VALID,207,VALID,0.844295,
2005-05-11, 03:24:01,VALID,917.399,VALID,0,VALID,78.973,VALID,-0.0849042,VALID,21.2359,VALID,229,VALID,1.17222,
2005-05-11, 03:25:00,VALID,917.402,VALID,0,VALID,79.4677,VALID,-0.0679233,VALID,21.2558,VALID,220,VALID,0.566964,
2005-05-11, 03:26:00,VALID,917.413,VALID,0,VALID,80.2866,VALID,-0.101885,VALID,21.2294,VALID,235,VALID,0.299851,
2005-05-11, 03:27:01,VALID,917.427,VALID,0,VALID,80.4595,VALID,-0.101885,VALID,21.1258,VALID,236,VALID,0.942383,
2005-05-11, 03:28:00,VALID,917.402,VALID,0,VALID,79.7487,VALID,-0.0679233,VALID,21.1355,VALID,238,VALID,1.07068,
2005-05-11, 03:29:00,VALID,917.395,VALID,0,VALID,79.6826,VALID,-0.101885,VALID,21.175,VALID,253,VALID,0.922222,
2005-05-11, 03:30:00,VALID,917.391,VALID,0,VALID,78.4491,VALID,-0.101885,VALID,21.3204,VALID,231,VALID,1.10366,
2005-05-11, 03:31:01,VALID,917.414,VALID,0,VALID,78.2965,VALID,-0.0849042,VALID,21.4359,VALID,221,VALID,0.641533,
2005-05-11, 03:32:00,VALID,917.394,VALID,0,VALID,79.1091,VALID,-0.101885,VALID,21.4717,VALID,199,VALID,0.380632,
2005-05-11, 03:33:01,VALID,917.405,VALID,0,VALID,79.4308,VALID,-0.0679233,VALID,21.433,VALID,194,VALID,0.549893,
2005-05-11, 03:34:00,VALID,917.408,VALID,0,VALID,80.0424,VALID,-0.101885,VALID,21.3689,VALID,220,VALID,1.11793,